Home > Time Zones > World Clock > Weather > U.S.A. > Waco > Past weeks

Flag for U.S.A. Weather past 2 weeks in Waco, Texas, U.S.A.

Now
58 °F

Fog.


Feels Like: 57 °F
Forecast: 54 / 72 °F
Wind: 6 mph from North

Location: Waco Regional Airport


UV Index: 7 (High)

Visibility: 5 mi


Pressure: 30.16 "Hg

Humidity: 93%

Dew point: 56 °F

Location of WacoLocation

Historic Weather in Waco

°F

Waco temperature yesterday

Maximum temperature yesterday: 70 °F (at 2:59 PM)
Minimum temperature yesterday: 52 °F (at 12:51 AM)
Average temperature yesterday: 59 °F

Past Weeks' High & Low Weather Summary

 TemperatureHumidityPressure
High84 °F (Apr 10, 3:51 PM)96% (Apr 6, 10:51 AM)30.36 "Hg (Apr 6, 10:51 AM)
Low31 °F (Apr 15, 6:51 AM)21% (Apr 8, 3:51 PM)29.63 "Hg (Apr 13, 4:51 PM)
Average61 °F66%29.98 "Hg
* Reported Apr 3 3:51 AM — Apr 18 3:51 AM, Waco, Weather by CustomWeather, © 2014

Note: Actual official high and low records may vary slightly from our data, if they occured in-between our weather recording intervals... More about our weather records

Advertising

Historic Weather Conditions — Data for Previous 24 hours

 ConditionsComfort  
Time TempWeatherWind HumidityBarometerVisibility
3:51 AM
Apr 18
58 °FLight rain. Fog.No wind93%30.15 "Hg5 mi
2:51 AM58 °FOvercast.5 mph93%30.16 "Hg7 mi
1:51 AM59 °FOvercast.3 mph90%30.17 "Hg8 mi
12:51 AM59 °FMostly cloudy.7 mph90%30.18 "Hg8 mi
11:51 PM
Apr 17
60 °FLight rain. Overcast.9 mph90%30.17 "Hg7 mi
10:51 PM60 °FFog.6 mph93%30.16 "Hg6 mi
9:51 PM61 °FFog.No wind93%30.15 "Hg5 mi
8:51 PM61 °FFog.No wind93%30.13 "Hg6 mi
7:51 PM61 °FFog.6 mph93%30.12 "Hg5 mi
6:51 PM63 °FCloudy.5 mph87%30.10 "Hg9 mi
5:51 PM64 °FMostly cloudy.No wind84%30.09 "Hg7 mi
4:51 PM67 °FMostly cloudy.5 mph68%30.07 "Hg10 mi
3:51 PM68 °FOvercast.6 mph63%30.07 "Hg10 mi
2:59 PM70 °FMostly cloudy.9 mph60%30.09 "Hg10 mi
1:51 PM67 °FMostly cloudy.12 mph68%30.11 "Hg10 mi
12:51 PM65 °FOvercast.14 mph70%30.12 "Hg10 mi
11:51 AM61 °FMostly cloudy.9 mph75%30.14 "Hg10 mi
10:51 AM59 °FMore clouds than sun.8 mph78%30.13 "Hg10 mi
9:51 AM57 °FMostly cloudy.5 mph83%30.09 "Hg10 mi
8:51 AM56 °FMore clouds than sun.12 mph84%30.09 "Hg10 mi
7:51 AM54 °FOvercast.8 mph90%30.07 "Hg7 mi
6:51 AM54 °FOvercast.7 mph90%30.04 "Hg8 mi
5:51 AM54 °FMostly cloudy.7 mph86%30.03 "Hg8 mi
Weather by CustomWeather, © 2014

See weather overview